DMSP 5D-2 F13 DEB, 40398

Orbit data source: Space-Track

DMSP 5D-2 F13 DEB, 40398 is space debris in SSO originally from a launch on Fri, 24 Mar 1995 UTC launched from the Air Force Western Test Range (AFWTR). Debris objects in space refer to the collection of defunct objects orbiting the Earth. Examples of debris include non-operational satellites, rocket bodies, and fragments generated from explosions, collisions, or faulty payload assembly.

Loading next visibility...
Identifier
40398, 1995-015K
Orbit
SSO
Country
Flag of USUS
Related business
Manufacturer
Unknown
Mission
Spacecraft
Bus & Motor
Unknown
Mass
Unknown
Launch date (UTC)
1995-03-24 (31 years ago)
Launch vehicle
Unknown
Launch site
Air Force Western Test Range (AFWTR)
Object type
Payload
Rocket body
Debris
Shape & HBR
Unknown shape, 0.1 m
Radar Cross Section
Medium (>0.1 m² and <1 m²)

Expand to show TLE details & history
Last TLE update: 2 days ago

TLE from 2 days ago
0 DMSP 5D-2 F13 DEB
1 40398U 95015K   26171.31139924  .00000106  00000-0  73879-4 0  9998
2 40398  98.7959 185.5337 0007539 127.7899 232.3960 14.17457871584986
Epoch: 2026-06-20T07:28Z
TLE epoch observation values (Epoch: 2026-06-20T07:28:24.894Z)
Latitude
0.00003°
Longitude
164.90213°
Altitude
840.192 km
Speed
7.431 km/s
True Right ascension
12h 22m 08s
True Declination
0° 00' 00"
Sunlit
Object was in daylight at epoch
Visualization orbit readout
Latitude
Unknown
Longitude
Unknown
Altitude
Unknown
Speed
Unknown
Apparent Right ascension
Unknown
Apparent Declination
Unknown
Sunlit
N/A
Visualization observer readout
Local Sidereal Time
23:19:37
Azimuth
Unknown
Elevation
Unknown
Doppler factor
Unknown
Orbital elements
Apogee altitude
836.564 km
Perigee altitude
825.694 km
Semi-major axis
7,209.266 km
Eccentricity
0.00075
Inclination
98.7959°
RAAN
185.5337°
Arg. of periapsis
127.7899°
True anomaly
232.3276°
Mean anomaly
232.396°
Eccentric anomaly
232.36179°
Mean motion
3.54574 °/min
Orbital period
101.53 mins
BSTAR
0.000073879
Loading maneuver chart data...
Computing Atmospheric mass density...

Documentation

Showing up to 5 results
|